Location: Branche des Alpilles
(43.6087°N, 4.6976°E)
Time: 12:52:13
(UTC+00:00)

COSMO-SKYMED 1 - Pass Details

Date: 30 November 2020
Orbit: 621 x 623 km, 97.9° (Epoch: 26 January)

Event Time Altitude Azimuth Distance (km) Brightness Sun altitude
Exits shadow 18:42:40 14° 344° (NNW) 1,734 4.9 -27.7°
Maximum altitude 18:45:35 28° 292° (WNW) 1,172 4.5 -28.3°
Drops below altitude 10° 18:49:17 10° 233° (SW) 1,991 5.8 -28.9°
Sets 18:51:41 0° 222° (SW) 2,892 6.6 -29.4°
